QPF
0.00 0.00 0.00 0.00 0.00 0.00 0.00 0.00 0.00 0.00 0.00 0.00 0.00 0.00 0.02 0.04 0.07 0.11 0.15 0.20 0.29 0.15 0.22 0.23 0.08 0.01 0.00 0.00 0.00 0.00 0.00 0.00
0.00 0.00 0.00 0.00 0.00 0.00 0.00 0.00 0.00 0.02 0.00 0.00 0.00 0.00 0.00 0.05 0.11 0.07 0.05 0.17 0.14 0.14 0.10 0.16 0.07 0.02 0.00 0.00 0.00 0.00 0.00 0.00
0.00 0.00 0.00 0.00 0.00 0.00 0.00 0.00 0.00 0.03 0.04 0.00 0.00 0.00 0.00 0.00 0.07 0.13 0.16 0.16 0.12 0.06 0.04 0.01 0.02 0.02 0.02 0.00 0.00 0.00 0.00 0.00
0.00 0.00 0.00 0.00 0.00 0.00 0.00 0.00 0.00 0.00 0.02 0.03 0.00 0.00 0.00 0.00 0.01 0.07 0.19 0.19 0.11 0.04 0.02 0.01 0.03 0.01 0.02 0.00 0.00 0.00 0.01 0.00
0.00 0.00 0.00 0.00 0.00 0.00 0.00 0.00 0.00 0.00 0.00 0.00 0.01 0.01 0.00 0.00 0.00 0.03 0.08 0.11 0.09 0.03 0.00 0.00 0.01 0.01 0.02 0.00 0.00 0.02 0.00 0.00
0.00 0.00 0.00 0.00 0.00 0.00 0.00 0.00 0.00 0.00 0.00 0.00 0.00 0.00 0.00 0.00 0.00 0.00 0.03 0.07 0.05 0.08 0.06 0.01 0.01 0.02 0.04 0.04 0.05 0.08 0.01 0.00
0.00 0.00 0.00 0.00 0.00 0.00 0.00 0.00 0.00 0.00 0.00 0.00 0.00 0.00 0.00 0.00 0.00 0.00 0.01 0.06 0.05 0.04 0.06 0.05 0.07 0.05 0.06 0.10 0.09 0.13 0.03 0.00
0.00 0.00 0.00 0.00 0.00 0.00 0.00 0.00 0.00 0.00 0.00 0.00 0.00 0.00 0.00 0.00 0.00 0.00 0.00 0.02 0.05 0.03 0.02 0.06 0.10 0.03 0.06 0.35 0.12 0.10 0.06 0.00
0.00 0.00 0.00 0.00 0.00 0.00 0.00 0.00 0.00 0.00 0.00 0.00 0.00 0.00 0.00 0.02 0.04 0.01 0.01 0.02 0.06 0.14 0.04 0.04 0.11 0.01 0.03 0.21 0.14 0.04 0.08 0.01
0.00 0.00 0.00 0.00 0.00 0.00 0.00 0.00 0.00 0.00 0.00 0.00 0.00 0.00 0.00 0.00 0.05 0.06 0.03 0.03 0.03 0.15 0.18 0.11 0.21 0.02 0.00 0.04 0.04 0.04 0.09 0.08
0.00 0.00 0.00 0.00 0.00 0.00 0.00 0.00 0.00 0.00 0.00 0.00 0.00 0.00 0.00 0.00 0.01 0.05 0.06 0.05 0.05 0.09 0.17 0.50 0.39 0.09 0.00 0.01 0.01 0.03 0.12 0.21
0.00 0.00 0.00 0.00 0.00 0.00 0.00 0.00 0.00 0.00 0.00 0.00 0.00 0.00 0.00 0.00 0.00 0.02 0.04 0.07 0.07 0.07 0.12 0.22 0.58 0.26 0.01 0.00 0.00 0.02 0.16 0.16
0.00 0.00 0.00 0.00 0.00 0.00 0.00 0.00 0.00 0.00 0.00 0.00 0.00 0.00 0.00 0.00 0.00 0.01 0.03 0.07 0.06 0.12 0.09 0.11 0.19 0.16 0.03 0.02 0.01 0.00 0.05 0.10
0.00 0.00 0.00 0.00 0.00 0.00 0.00 0.00 0.00 0.00 0.00 0.00 0.00 0.00 0.00 0.00 0.00 0.00 0.02 0.04 0.04 0.10 0.21 0.16 0.16 0.13 0.03 0.04 0.02 0.00 0.00 0.02
0.00 0.00 0.00 0.00 0.00 0.00 0.00 0.00 0.00 0.00 0.00 0.00 0.00 0.00 0.00 0.00 0.00 0.00 0.01 0.04 0.03 0.12 0.23 0.24 0.23 0.27 0.08 0.02 0.02 0.00 0.00 0.02
0.00 0.00 0.00 0.00 0.00 0.00 0.00 0.00 0.00 0.00 0.00 0.00 0.00 0.01 0.00 0.00 0.00 0.00 0.00 0.01 0.02 0.10 0.28 0.37 0.23 0.27 0.21 0.08 0.03 0.02 0.01 0.01
0.00 0.00 0.00 0.00 0.00 0.00 0.00 0.00 0.00 0.00 0.00 0.00 0.00 0.00 0.00 0.00 0.00 0.00 0.00 0.00 0.01 0.03 0.17 0.36 0.33 0.17 0.26 0.15 0.09 0.07 0.06 0.04
0.00 0.00 0.00 0.00 0.00 0.00 0.00 0.00 0.00 0.00 0.00 0.00 0.00 0.00 0.00 0.00 0.00 0.00 0.01 0.00 0.00 0.01 0.06 0.20 0.33 0.27 0.15 0.18 0.04 0.06 0.05 0.04
0.00 0.00 0.00 0.00 0.00 0.00 0.00 0.00 0.00 0.00 0.01 0.00 0.00 0.00 0.00 0.00 0.00 0.00 0.00 0.00 0.00 0.00 0.03 0.07 0.17 0.30 0.14 0.22 0.16 0.04 0.06 0.04
0.00 0.00 0.00 0.00 0.00 0.00 0.00 0.00 0.00 0.00 0.00 0.00 0.00 0.00 0.00 0.00 0.00 0.00 0.00 0.00 0.00 0.00 0.02 0.04 0.10 0.19 0.21 0.15 0.18 0.09 0.04 0.05
MSLP
1024.37 1024.20 1023.76 1023.06 1022.40 1022.15 1022.94 1023.00 1022.25 1021.94 1021.42 1020.81 1020.04 1019.33 1019.01 1018.43 1018.04 1017.85 1017.88 1017.75 1017.89 1018.12 1018.40 1018.53 1018.47 1018.56 1018.56 1018.52 1018.77 1018.79 1018.97 1019.13
1024.46 1024.47 1024.29 1023.78 1023.00 1022.59 1022.73 1022.78 1022.41 1022.15 1021.94 1021.36 1020.76 1020.05 1019.53 1019.20 1018.65 1018.26 1017.98 1017.71 1017.68 1017.92 1018.26 1018.19 1018.50 1018.47 1018.38 1018.39 1018.56 1018.93 1019.10 1019.13
1024.49 1024.60 1024.57 1024.25 1023.51 1023.62 1023.14 1022.49 1022.78 1022.26 1022.21 1021.85 1021.25 1020.80 1020.34 1019.80 1019.21 1018.67 1018.11 1017.55 1017.35 1017.51 1017.84 1018.11 1018.40 1018.46 1018.50 1018.39 1018.42 1018.68 1017.95 1018.74
1024.65 1024.76 1024.75 1024.50 1023.85 1023.60 1023.35 1023.01 1022.68 1022.48 1022.48 1022.53 1021.84 1021.69 1021.31 1020.56 1019.87 1019.20 1018.52 1017.63 1017.01 1017.19 1017.40 1017.88 1018.25 1018.56 1018.64 1018.52 1018.59 1018.67 1018.57 1018.92
1024.71 1024.85 1025.07 1024.93 1024.48 1024.09 1023.82 1023.26 1022.93 1022.66 1022.75 1022.64 1022.25 1022.69 1022.37 1021.25 1020.60 1019.86 1019.24 1018.25 1017.32 1017.12 1017.36 1017.78 1018.10 1018.42 1018.59 1018.52 1018.65 1018.83 1018.58 1018.95
1024.67 1024.92 1025.19 1025.34 1025.00 1024.84 1024.29 1023.64 1023.21 1023.15 1022.87 1022.82 1023.01 1023.37 1022.53 1022.05 1021.23 1020.60 1019.82 1019.22 1018.36 1017.38 1017.30 1017.46 1017.67 1018.16 1018.43 1018.49 1018.83 1019.07 1018.78 1019.46
1024.52 1024.83 1025.26 1025.39 1025.35 1025.10 1024.72 1024.00 1023.57 1023.34 1022.68 1022.72 1023.04 1023.29 1023.00 1022.69 1021.79 1021.07 1020.42 1019.97 1019.37 1018.55 1017.90 1017.36 1017.42 1017.87 1018.39 1018.51 1018.83 1019.64 1019.18 1019.25
1024.29 1024.67 1024.97 1025.25 1025.49 1025.33 1024.95 1024.23 1023.73 1023.34 1022.70 1022.86 1023.06 1023.16 1023.16 1022.90 1022.16 1021.49 1020.90 1020.39 1019.78 1019.12 1018.46 1017.79 1017.19 1017.89 1018.40 1018.69 1019.21 1019.68 1019.39 1019.44
1023.75 1024.19 1024.50 1025.06 1025.28 1025.21 1024.85 1024.42 1023.83 1023.41 1022.69 1022.47 1022.81 1022.94 1022.84 1022.57 1022.54 1022.07 1021.24 1020.63 1020.01 1019.31 1018.31 1017.88 1017.71 1017.74 1018.35 1018.71 1019.21 1019.73 1019.49 1019.41
1023.12 1023.48 1024.13 1024.69 1025.06 1024.99 1024.65 1024.33 1023.95 1023.27 1022.73 1022.36 1022.70 1022.90 1022.80 1022.63 1022.69 1022.10 1021.47 1021.02 1020.44 1019.82 1018.64 1018.31 1017.82 1017.60 1018.18 1018.55 1018.93 1019.19 1019.29 1019.34
1022.63 1023.13 1023.73 1024.33 1024.63 1024.61 1024.33 1024.30 1023.83 1023.39 1022.87 1022.29 1022.40 1022.72 1022.75 1022.50 1022.40 1022.22 1021.88 1021.15 1020.60 1020.00 1018.97 1018.81 1017.95 1017.11 1018.03 1018.52 1018.70 1018.94 1019.25 1019.33
1022.14 1022.84 1023.54 1024.11 1024.36 1024.30 1024.15 1024.32 1023.88 1023.51 1022.98 1022.34 1022.19 1022.58 1022.79 1022.51 1022.28 1022.16 1021.68 1021.08 1020.82 1020.21 1019.31 1018.63 1018.29 1017.21 1017.88 1018.43 1018.62 1018.78 1019.03 1019.68
1021.68 1022.53 1023.57 1024.39 1024.72 1024.43 1024.11 1024.24 1024.05 1023.52 1022.99 1022.32 1022.17 1022.13 1022.47 1022.35 1022.28 1022.02 1021.76 1021.02 1021.07 1020.58 1019.83 1018.97 1018.07 1017.60 1018.37 1018.56 1018.86 1018.81 1019.11 1019.49
1021.58 1022.24 1023.30 1024.61 1024.25 1024.38 1024.31 1024.36 1024.17 1023.37 1022.83 1022.47 1021.93 1021.77 1022.19 1022.15 1022.17 1022.01 1021.73 1021.26 1021.26 1020.50 1019.82 1019.31 1018.67 1017.54 1017.94 1018.44 1018.77 1019.00 1018.75 1019.02
1022.10 1022.80 1023.53 1024.92 1024.86 1023.92 1024.13 1024.24 1023.86 1023.38 1022.96 1022.47 1021.95 1021.47 1021.90 1022.27 1022.15 1021.99 1021.65 1021.61 1021.49 1020.76 1020.34 1020.05 1019.59 1017.59 1017.29 1017.56 1018.38 1018.26 1018.28 1018.21
1022.65 1023.36 1023.91 1024.38 1024.31 1024.07 1024.34 1024.24 1024.21 1023.72 1023.09 1022.63 1022.55 1022.82 1022.16 1022.18 1022.17 1022.07 1022.00 1022.04 1021.53 1020.76 1020.40 1020.19 1019.38 1018.67 1017.67 1017.16 1017.49 1017.44 1018.02 1018.45
1023.08 1023.53 1024.19 1024.96 1024.35 1024.08 1024.25 1024.19 1024.06 1023.75 1023.40 1023.15 1022.78 1022.87 1022.42 1022.31 1022.28 1022.15 1021.84 1022.01 1021.72 1021.03 1020.50 1020.09 1019.69 1019.43 1018.55 1017.76 1017.79 1017.65 1017.90 1017.97
1023.04 1023.64 1023.89 1023.88 1023.96 1024.08 1024.42 1024.23 1024.13 1023.91 1023.79 1023.59 1023.09 1023.10 1022.74 1022.54 1022.34 1022.12 1021.88 1021.68 1021.35 1020.86 1020.70 1020.02 1019.61 1019.00 1018.77 1018.35 1017.24 1017.25 1017.52 1017.66
1023.03 1023.34 1023.60 1023.72 1023.77 1024.15 1024.17 1024.26 1024.16 1023.94 1023.77 1023.65 1023.51 1023.16 1022.94 1022.81 1022.26 1021.88 1021.69 1021.44 1021.55 1021.33 1020.91 1020.36 1019.90 1018.99 1018.14 1018.16 1017.58 1016.69 1016.99 1017.49
1023.26 1023.49 1023.54 1023.55 1023.77 1024.07 1024.17 1024.17 1024.12 1023.89 1023.90 1023.72 1023.62 1023.59 1023.22 1022.62 1022.14 1021.65 1021.51 1021.50 1021.58 1021.31 1020.79 1020.39 1019.21 1018.72 1017.88 1018.21 1017.55 1016.48 1016.72 1017.03
Thickness
5584 5586 5590 5596 5604 5608 5599 5603 5614 5622 5628 5635 5644 5652 5657 5663 5668 5670 5671 5676 5675 5674 5675 5674 5678 5680 5682 5685 5686 5689 5691 5692
5570 5572 5573 5578 5588 5590 5591 5593 5602 5609 5616 5624 5630 5638 5646 5651 5657 5664 5668 5673 5674 5674 5673 5675 5673 5676 5679 5683 5685 5685 5688 5690
5555 5556 5558 5561 5567 5569 5576 5588 5588 5597 5603 5613 5621 5626 5631 5639 5646 5654 5664 5670 5672 5672 5672 5672 5672 5674 5675 5679 5682 5684 5695 5691
5540 5537 5539 5542 5547 5557 5561 5569 5576 5585 5590 5597 5607 5611 5616 5625 5633 5645 5655 5665 5669 5670 5672 5670 5670 5671 5672 5676 5678 5682 5688 5687
5528 5521 5520 5520 5523 5533 5540 5550 5561 5567 5575 5585 5593 5594 5600 5612 5620 5632 5642 5653 5662 5667 5667 5667 5668 5670 5671 5674 5675 5679 5684 5685
5513 5507 5502 5499 5499 5503 5515 5526 5540 5547 5560 5569 5573 5577 5591 5599 5609 5619 5631 5639 5650 5660 5664 5666 5668 5669 5669 5671 5671 5674 5681 5679
5500 5490 5481 5478 5477 5479 5485 5502 5515 5527 5544 5553 5558 5564 5575 5585 5597 5607 5618 5627 5636 5647 5655 5663 5667 5666 5665 5667 5669 5666 5673 5678
5482 5470 5459 5454 5451 5452 5458 5471 5491 5505 5524 5537 5544 5551 5561 5572 5585 5596 5606 5616 5626 5637 5646 5657 5666 5662 5661 5663 5663 5663 5669 5673
5466 5450 5430 5421 5423 5420 5429 5442 5463 5481 5501 5521 5530 5540 5552 5562 5572 5583 5595 5605 5616 5629 5642 5650 5656 5660 5658 5659 5659 5659 5665 5669
5452 5428 5409 5394 5390 5391 5400 5414 5433 5456 5479 5500 5515 5526 5538 5548 5559 5572 5584 5593 5604 5617 5633 5642 5652 5659 5656 5657 5658 5660 5664 5665
5437 5410 5392 5379 5370 5371 5378 5389 5408 5430 5456 5479 5499 5510 5524 5537 5549 5560 5571 5584 5594 5608 5621 5631 5645 5657 5653 5652 5656 5658 5659 5660
5420 5399 5378 5364 5357 5357 5361 5368 5386 5407 5431 5458 5481 5494 5508 5524 5537 5550 5563 5574 5585 5598 5613 5625 5635 5649 5648 5647 5651 5654 5655 5653
5411 5390 5369 5352 5341 5342 5347 5351 5368 5389 5412 5438 5462 5481 5494 5511 5525 5539 5552 5566 5574 5586 5601 5616 5630 5639 5633 5640 5643 5648 5649 5649
5406 5383 5363 5343 5336 5331 5333 5339 5353 5374 5389 5418 5444 5467 5481 5498 5513 5527 5541 5555 5561 5579 5593 5605 5617 5632 5632 5633 5634 5639 5648 5649
5399 5375 5350 5331 5326 5327 5325 5330 5344 5359 5382 5401 5428 5452 5469 5483 5501 5516 5532 5543 5550 5566 5579 5589 5602 5625 5634 5634 5631 5637 5644 5648
5393 5364 5341 5328 5321 5319 5318 5323 5332 5351 5365 5385 5406 5427 5454 5472 5489 5505 5519 5528 5540 5556 5571 5582 5596 5607 5624 5634 5638 5643 5638 5636
5384 5364 5338 5318 5318 5319 5318 5321 5327 5339 5355 5373 5392 5416 5443 5464 5480 5495 5510 5520 5532 5548 5561 5573 5585 5596 5609 5625 5629 5635 5635 5638
5390 5367 5348 5334 5326 5321 5318 5320 5323 5333 5347 5359 5381 5404 5430 5445 5466 5483 5499 5515 5529 5543 5552 5568 5580 5592 5601 5612 5629 5631 5632 5635
5393 5374 5358 5345 5333 5323 5321 5319 5323 5330 5340 5354 5371 5394 5414 5432 5456 5476 5493 5508 5520 5532 5544 5557 5569 5585 5599 5606 5618 5631 5632 5634
5396 5380 5366 5353 5340 5329 5322 5320 5323 5330 5337 5349 5365 5379 5403 5425 5449 5471 5488 5501 5513 5525 5537 5549 5569 5580 5596 5599 5610 5627 5629 5631